ONEWEB-0056, 45159

Orbit data source: Space-Track

ONEWEB-0056, 45159 is a payload satellite owned by One Web (UK) in LEO that was launched on Thu, 06 Feb 2020 UTC via a SOYUZ-2-1B launch vehicle from the Tyuratam Missile And Space Complex (TTMTR). Payload-class satellites include a variety of spacecraft equipped with specific instruments for various scientific and technological missions. These include communications satellites like Starlink; space stations such as the ISS; scientific satellites like the Hubble; Earth observation satellites from companies like Planet Labs, Umbra, and HawkEye 360; GPS; miniature CubeSats for education and research; and military/defense satellites.

Loading next visibility...
Identifier
45159, 2020-008AE
Orbit
LEO
Last TLE update
15 hours ago
Origin
Manufacturer
One Web
Mission
Operational Commercial Communications
Bus & Motor
ARROW, Unknown motor
Mass
148 kg wet, ~140 kg dry
Launch date (UTC)
2020-02-06 (5 years ago)
Launch vehicle
SOYUZ-2-1B
Launch site
Tyuratam Missile And Space Complex (TTMTR)
Object type
Payload
Rocket body
Debris
Shape & HBR
Trap Box + 2 Pan, 5 m
Radar Cross Section
2.957 m², Large (>1 m²)

Expand to show TLE details & history

TLE from 15 hours ago
0 ONEWEB-0056
1 45159U 20008AE  25181.81912921 -.00000638  00000-0 -18646-2 0  9990
2 45159  87.8826 106.3346 0001923  77.1852 282.9491 13.10376192262168
Epoch: 2025-06-30T19:39Z
TLE epoch observation values (Epoch: 2025-06-30T19:39:32.763Z)
Latitude
0.00005°
Longitude
-107.67538°
Altitude
1,224.264 km
Speed
7.242 km/s
True Right ascension
07h 05m 20s
True Declination
0° 00' 00"
Sunlit
Object was in daylight at epoch
Visualization orbit readout
Latitude
24.02335°
Longitude
-106.85852°
Altitude
1,223.702 km
Speed
7.245 km/s
Apparent Right ascension
08h 20m 45s
Apparent Declination
-5° 09' 01"
Sunlit
Object is in daylight
Visualization observer readout
Local Sidereal Time
22:04:55
Azimuth
40.872° NE
Elevation
-48.066°
Doppler factor
1
Orbital elements
Apogee altitude
1,220.285 km
Perigee altitude
1,217.363 km
Semi-major axis
7,596.961 km
Eccentricity
0.00019
Inclination
87.8826°
RAAN
106.3346°
Arg. of periapsis
77.1852°
True anomaly
Unknown
Mean anomaly
282.9491°
Eccentric anomaly
Unknown
Mean motion
3.27781 °/min
Orbital period
109.83 mins
BSTAR
-0.0018646
Loading maneuver chart data...
Loading SW <> Apogee altitude chart data...
Loading historical data...
Loading historical data...
Loading historical data...
Loading historical data...
Loading historical data...
Loading historical data...
Loading historical data...

ONEWEB-0056 Visibility forecast

Observer location: undefined°, undefined°

Span
Click to sort rows by Start time (UTC) header in descending order
Start Az.
Max El. time (UTC)
Max El. Az.
Max El.
End time (UTC)
End Az.
8 mins2025-07-01 17:48:28.992Z105.177° ESE2025-07-01 17:52:28.992Z68.703° E17.087°2025-07-01 17:56:28.992Z34.886° NE
13 mins2025-07-01 19:35:28.992Z185.556° SSW2025-07-01 19:41:28.992Z303.989° NW44.222°2025-07-01 19:48:28.992Z358.232° N
5 mins2025-07-02 05:18:28.992Z54.662° ENE2025-07-02 05:20:28.992Z72.125° E13.54°2025-07-02 05:23:28.992Z97.287° ESE
13 mins2025-07-02 07:05:28.992Z0.992° NNE2025-07-02 07:11:28.992Z107.453° ESE44.901°2025-07-02 07:18:28.992Z179.236° S
6 mins2025-07-02 08:57:28.992Z313.806° NW2025-07-02 09:00:28.992Z286.967° WNW15.614°2025-07-02 09:03:28.992Z260.538° W
|